This demonstration page uses our WeatherBlox Daily Observations layout. Learn more.

Hourly Observations for April 29, 2019

Temp ( °F °C ) Dew Point ( °F °C ) Humidity (%) Winds ( mph kmh ) Pressure ( in mb ) Visibility ( mi km ) Precip ( " mm )
12:15 am 00:15 Partly Cloudy with Light Rain 50 10.1 47 8.6 91 91 N 17 28 29.8 1009 10 16.0934 0 0
12:35 am 00:35 Cloudy with Light Rain 50 10.2 48 9 92 92 N 13 20 29.82 1010 10 16.0934 0 0
12:55 am 00:55 Cloudy 50 10.2 49 9.5 95 95 NNE 12 19 29.82 1010 10 16.0934 0 0
1:15 am 01:15 Cloudy 50 10.2 49 9.6 96 96 N 12 19 29.83 1010 10 16.0934 0 0
1:35 am 01:35 Cloudy 50 10.1 49 9.7 97 97 NNE 12 19 29.83 1010 10 16.0934 0 0
1:55 am 01:55 Cloudy 50 10.2 50 9.8 97 97 N 15 24 29.84 1011 10 16.0934 0 0
2:15 am 02:15 Cloudy 48 8.9 45 7.3 90 90 N 25 41 29.87 1012 10 16.0934 0 0
2:35 am 02:35 Cloudy 47 8.5 44 6.8 89 89 N 24 39 29.88 1012 10 16.0934 0 0
2:55 am 02:55 Cloudy 47 8.2 44 6.4 89 89 N 18 30 29.88 1012 10 16.0934 0 0
3:15 am 03:15 Cloudy 47 8.2 43 6.1 87 87 N 18 30 29.9 1012 10 16.0934 0 0
3:35 am 03:35 Cloudy 47 8.1 42 5.8 86 86 N 13 20 29.91 1013 10 16.0934 0 0
3:55 am 03:55 Cloudy 47 8.1 42 5.5 84 84 NNW 13 20 29.93 1014 10 16.0934 0 0
4:15 am 04:15 Cloudy 46 8 41 5 82 82 N 12 19 29.95 1014 10 16.0934 0 0
4:35 am 04:35 Cloudy 46 8 41 4.8 80 80 N 15 24 29.96 1015 10 16.0934 0 0
4:55 am 04:55 Cloudy 46 8 40 4.6 79 79 N 17 28 29.98 1015 10 16.0934 0 0
5:15 am 05:15 Cloudy 46 7.6 40 4.7 82 82 N 16 26 29.99 1016 10 16.0934 0 0
5:35 am 05:35 Mostly Cloudy 45 7.1 40 4.6 84 84 N 15 24 30.01 1016 10 16.0934 0 0
5:55 am 05:55 Clear 45 7 39 4.1 82 82 N 14 22 30.02 1017 10 16.0934 0 0
6:15 am 06:15 Clear 44 6.6 38 3.5 81 81 N 13 20 30.04 1017 10 16.0934 0 0
6:35 am 06:35 Clear 43 6.3 38 3.1 80 80 N 12 19 30.08 1018 10 16.0934 0 0
6:55 am 06:55 Partly Cloudy 42 5.8 37 2.7 81 81 N 13 20 30.1 1019 10 16.0934 0 0
7:15 am 07:15 Partly Cloudy 42 5.3 37 2.5 82 82 N 12 19 30.12 1020 10 16.0934 0 0
7:35 am 07:35 Sunny 42 5.7 37 2.6 81 81 N 13 20 30.12 1020 10 16.0934 0 0
7:55 am 07:55 Sunny 42 5.8 37 2.5 80 80 N 14 22 30.13 1020 10 16.0934 0 0
8:15 am 08:15 Sunny 43 6.1 37 2.5 78 78 N 13 20 30.14 1021 10 16.0934 0 0
8:35 am 08:35 Sunny 44 6.5 36 2.2 74 74 N 13 20 30.13 1020 10 16.0934 0 0
8:55 am 08:55 Sunny 44 6.5 35 1.4 70 70 N 15 24 30.13 1020 10 16.0934 0 0
9:15 am 09:15 Sunny 44 6.5 32 0.2 64 64 N 14 22 30.14 1021 10 16.0934 0 0
9:35 am 09:35 Sunny 44 6.7 32 0.1 63 63 N 17 28 30.13 1020 10 16.0934 0 0
9:55 am 09:55 Sunny 44 6.7 32 0 63 63 N 17 28 30.14 1021 10 16.0934 0 0
10:15 am 10:15 Sunny 45 7 32 0.2 62 62 NNW 16 26 30.15 1021 10 16.0934 0 0
10:35 am 10:35 Sunny 45 7.3 32 -0.2 59 59 NNW 15 24 30.16 1021 10 16.0934 0 0
10:55 am 10:55 Sunny 46 7.7 31 -0.5 56 56 N 13 20 30.16 1021 10 16.0934 0 0
11:15 am 11:15 Sunny 46 8 31 -0.4 56 56 N 16 26 30.17 1022 10 16.0934 0 0
11:35 am 11:35 Sunny 46 8 31 -0.8 54 54 N 17 28 30.16 1021 10 16.0934 0 0
11:55 am 11:55 Sunny 46 8 31 -0.7 55 55 N 15 24 30.16 1021 10 16.0934 0 0
12:15 pm 12:15 Sunny 48 8.7 31 -0.5 53 53 N 14 22 30.15 1021 10 16.0934 0 0
12:35 pm 12:35 Sunny 49 9.7 32 0 51 51 NNW 16 26 30.16 1021 10 16.0934 0 0
12:55 pm 12:55 Sunny 50 10 32 0 50 50 NNW 15 24 30.15 1021 10 16.0934 0 0
1:15 pm 13:15 Sunny 50 10.2 32 0 49 49 NNW 17 28 30.15 1021 10 16.0934 0 0
1:35 pm 13:35 Sunny 52 11.1 33 0.3 48 48 NNW 18 30 30.14 1021 10 16.0934 0 0
1:55 pm 13:55 Sunny 52 11.2 32 0 46 46 N 15 24 30.12 1020 10 16.0934 0 0
2:15 pm 14:15 Sunny 52 11.1 32 -0.2 46 46 N 18 30 30.12 1020 10 16.0934 0 0
2:35 pm 14:35 Sunny 53 11.5 32 0.2 46 46 NNW 14 22 30.12 1020 10 16.0934 0 0
2:55 pm 14:55 Sunny 53 11.9 32 0.2 45 45 N 20 31 30.11 1020 10 16.0934 0 0
3:15 pm 15:15 Partly Cloudy 54 12.3 32 0.2 44 44 NNW 14 22 30.1 1019 10 16.0934 0 0
3:35 pm 15:35 Sunny 54 12.1 32 -0.1 43 43 N 16 26 30.1 1019 10 16.0934 0 0
3:55 pm 15:55 Sunny 54 12 33 0.5 46 46 N 18 30 30.11 1019 10 16.0934 0 0
4:15 pm 16:15 Sunny 53 11.6 32 0 45 45 N 14 22 30.11 1020 10 16.0934 0 0
4:35 pm 16:35 Sunny 53 11.5 32 0.1 46 46 N 17 28 30.1 1019 10 16.0934 0 0
4:55 pm 16:55 Sunny 53 11.4 33 0.4 47 47 N 15 24 30.11 1020 10 16.0934 0 0
5:15 pm 17:15 Sunny 51 10.5 31 -0.4 47 47 N 17 28 30.12 1020 10 16.0934 0 0
5:35 pm 17:35 Sunny 50 10 32 0 50 50 NNE 15 24 30.13 1020 10 16.0934 0 0
5:55 pm 17:55 Sunny 49 9.5 31 -0.3 51 51 N 14 22 30.14 1021 10 16.0934 0 0
6:15 pm 18:15 Sunny 49 9.3 32 0 53 53 NNE 16 26 30.15 1021 10 16.0934 0 0
6:35 pm 18:35 Sunny 48 8.9 31 -0.4 52 52 N 14 22 30.15 1021 10 16.0934 0 0
6:55 pm 18:55 Partly Cloudy 47 8.6 31 -0.4 54 54 NNE 14 22 30.17 1022 10 16.0934 0 0
7:15 pm 19:15 Mostly Cloudy 47 8.5 32 0 55 55 NNE 17 28 30.17 1022 10 16.0934 0 0
7:35 pm 19:35 Partly Cloudy 46 8 31 -0.5 55 55 N 16 26 30.17 1022 10 16.0934 0 0
7:55 pm 19:55 Partly Cloudy 46 7.5 31 -0.3 58 58 NNE 15 24 30.18 1022 10 16.0934 0 0
8:15 pm 20:15 Mostly Cloudy 45 7.3 32 -0.2 59 59 NNE 16 26 30.17 1022 10 16.0934 0 0
8:35 pm 20:35 Partly Cloudy 45 7.1 31 -0.5 59 59 N 16 26 30.17 1022 10 16.0934 0 0
8:55 pm 20:55 Partly Cloudy 44 6.8 31 -0.4 60 60 NNE 14 22 30.18 1022 10 16.0934 0 0
9:15 pm 21:15 Mostly Cloudy 44 6.7 32 0 63 63 NNE 15 24 30.19 1022 10 16.0934 0 0
9:35 pm 21:35 Cloudy 44 6.5 32 -0.2 63 63 NNE 12 19 30.2 1023 10 16.0934 0 0
9:55 pm 21:55 Cloudy 44 6.5 32 -0.2 63 63 NNE 15 24 30.21 1023 10 16.0934 0 0
10:15 pm 22:15 Cloudy 43 6.3 32 -0.1 64 64 NNE 13 20 30.22 1023 10 16.0934 0 0
10:35 pm 22:35 Cloudy 43 6.2 32 0 65 65 NNE 12 19 30.22 1023 10 16.0934 0 0
10:55 pm 22:55 Cloudy 43 6.1 32 0 65 65 NNE 13 20 30.22 1023 10 16.0934 0 0
11:15 pm 23:15 Cloudy 43 6 32 0.1 66 66 NNE 9 15 30.23 1024 10 16.0934 0 0
11:35 pm 23:35 Cloudy with Light Drizzle 42 5.7 33 0.4 69 69 NNE 14 22 30.22 1023 10 16.0934 0 0
11:55 pm 23:55 Cloudy 42 5.6 33 0.3 69 69 NNE 12 19 30.21 1023 10 16.0934 0 0

Powered by AerisWeather